Weather History for KHYR - March, 2013

Change the Weather History Date:

Sunday, March 31, 2013

  Actual Average Record
Temperature  
Mean Temperature 30 °F -  
Max Temperature 37 °F 44 °F 59 °F (1999)
Min Temperature 25 °F 19 °F 0 °F (1970)
Degree Days  
Heating Degree Days 34    
Moisture  
Dew Point 24 °F    
Average Humidity 78    
Maximum Humidity 93    
Minimum Humidity 38    
Precipitation  
Precipitation 0.00 in - - ()
Sea Level Pressure  
Sea Level Pressure 29.77 in    
Wind  
Wind Speed 3 mph (WNW)    
Max Wind Speed 12 mph    
Max Gust Speed 25 mph    
Visibility 5 miles    
Events Fog , Snow    
Averages and records for this station are not official NWS values.
T = Trace of Precipitation, MM = Missing Value Source: NWS Daily Summary

Daily Weather History Graph

Daily Weather History Graph

Search for Another Location

Airport or City:

Trip Planner

Search our weather history database for the weather conditions in past years. The results will help you decide how hot, cold, wet, or windy it might be!

Date:

Astronomy

Mar. 31, 2013 Rise Set
Actual Time 6:47 AM CDT 7:33 PM CDT
Civil Twilight 6:16 AM CDT 8:03 PM CDT
Nautical Twilight 5:40 AM CDT 8:39 PM CDT
Astronomical Twilight 5:03 AM CDT 9:17 PM CDT
Moon No Moon Rise 9:21 AM CDT (3/31)
Length of Visible Light 13h 46m
Length of Day
12h 46m
Waning Gibbous, 77% of the Moon is Illuminated
Mar 31
Waning Gibbous
Apr 2
Last Quarter
Apr 10
New
Apr 18
First Quarter
Apr 25
Full

Hourly Weather History & Observations

Time (CDT) Temp. Windchill Dew Point Humidity Pressure Visibility Wind Dir Wind Speed Gust Speed Precip Events Conditions
12:34 AM 28.4 °F - 26.6 °F 93% 29.76 in 0.2 mi Calm Calm - N/A Fog Light Freezing Fog
12:53 AM 28.9 °F - 26.1 °F 89% 29.80 in 0.2 mi Calm Calm - N/A Fog Light Freezing Fog
1:37 AM 28.4 °F - 26.6 °F 93% 29.76 in 0.5 mi Calm Calm - N/A Fog Light Freezing Fog
1:44 AM 28.4 °F - 26.6 °F 93% 29.75 in 1.2 mi Calm Calm - N/A   Mostly Cloudy
1:53 AM 28.9 °F - 27.0 °F 92% 29.79 in 1.5 mi Calm Calm - N/A   Mostly Cloudy
2:02 AM 28.4 °F - 26.6 °F 93% 29.75 in 0.8 mi Calm Calm - N/A   Overcast
2:18 AM 30.2 °F - 28.4 °F 93% 29.74 in 1.2 mi Calm Calm - N/A   Overcast
2:37 AM 28.4 °F - 26.6 °F 93% 29.74 in 0.8 mi Calm Calm - N/A   Mostly Cloudy
2:50 AM 30.2 °F - 26.6 °F 86% 29.74 in 1.2 mi Calm Calm - N/A   Mostly Cloudy
2:53 AM 28.9 °F - 27.0 °F 92% 29.78 in 1.5 mi Calm Calm - N/A   Mostly Cloudy
3:04 AM 28.4 °F - 26.6 °F 93% 29.74 in 2.0 mi Calm Calm - N/A   Mostly Cloudy
3:11 AM 28.4 °F - 26.6 °F 93% 29.74 in 1.2 mi Calm Calm - N/A   Mostly Cloudy
3:18 AM 28.4 °F - 26.6 °F 93% 29.74 in 3.0 mi Calm Calm - N/A   Scattered Clouds
3:32 AM 30.2 °F 26.7 °F 28.4 °F 93% 29.73 in 2.5 mi SSW 3.5 mph - N/A   Partly Cloudy
3:42 AM 30.2 °F 26.7 °F 28.4 °F 93% 29.73 in 4.0 mi SSW 3.5 mph - N/A   Scattered Clouds
3:53 AM 30.0 °F - 28.0 °F 92% 29.77 in 4.0 mi Calm Calm - N/A   Mostly Cloudy
4:53 AM 30.9 °F - 28.9 °F 92% 29.75 in 7.0 mi Calm Calm - N/A   Overcast
5:53 AM 30.9 °F - 28.9 °F 92% 29.73 in 5.0 mi Calm Calm - N/A   Overcast
6:53 AM 30.9 °F - 28.0 °F 89% 29.73 in 10.0 mi Calm Calm - N/A   Overcast
7:53 AM 32.0 °F 28.7 °F 28.0 °F 85% 29.74 in 6.0 mi West 3.5 mph - 0.00 in Snow Light Snow
7:58 AM 32.0 °F 27.5 °F 28.4 °F 87% 29.69 in 1.8 mi Variable 4.6 mph - 0.00 in Snow Light Snow
8:10 AM 32.0 °F 28.7 °F 28.4 °F 87% 29.69 in 3.0 mi West 3.5 mph - 0.00 in Snow Light Snow
8:26 AM 32.0 °F 28.7 °F 28.4 °F 87% 29.69 in 1.8 mi Variable 3.5 mph - 0.00 in Snow Light Snow
8:43 AM 32.0 °F 27.5 °F 28.4 °F 87% 29.69 in 2.0 mi Variable 4.6 mph - 0.00 in Snow Light Snow
8:53 AM 32.0 °F 28.7 °F 28.9 °F 88% 29.74 in 1.2 mi West 3.5 mph - 0.00 in Snow Light Snow
8:55 AM 32.0 °F 25.6 °F 28.4 °F 87% 29.69 in 1.0 mi Variable 6.9 mph - 0.00 in Snow Light Snow
9:04 AM 32.0 °F 26.4 °F 28.4 °F 87% 29.69 in 2.0 mi WSW 5.8 mph - 0.00 in Snow Light Snow
9:07 AM 32.0 °F 28.7 °F 28.4 °F 87% 29.69 in 3.0 mi Variable 3.5 mph - 0.00 in Snow Light Snow
9:17 AM 32.0 °F 28.7 °F 28.4 °F 87% 29.69 in 2.5 mi Variable 3.5 mph - 0.00 in Snow Light Snow
9:24 AM 32.0 °F 27.5 °F 28.4 °F 87% 29.69 in 4.0 mi Variable 4.6 mph - 0.00 in Snow Light Snow
9:45 AM 33.8 °F 28.6 °F 28.4 °F 81% 29.69 in 2.5 mi West 5.8 mph - 0.00 in Snow Light Snow
9:53 AM 33.1 °F 26.9 °F 28.9 °F 85% 29.74 in 3.0 mi West 6.9 mph - 0.00 in Snow Light Snow
10:05 AM 33.8 °F 28.6 °F 28.4 °F 81% 29.70 in 2.5 mi Variable 5.8 mph - 0.00 in Snow Light Snow
10:12 AM 33.8 °F 27.7 °F 28.4 °F 81% 29.70 in 4.0 mi WNW 6.9 mph - 0.00 in Snow Light Snow
10:31 AM 33.8 °F 29.6 °F 28.4 °F 81% 29.70 in 2.0 mi Variable 4.6 mph - 0.00 in Snow Light Snow
10:44 AM 35.6 °F 30.7 °F 28.4 °F 75% 29.70 in 8.0 mi Variable 5.8 mph - 0.00 in Snow Light Snow
10:53 AM 35.1 °F 30.1 °F 27.0 °F 72% 29.74 in 10.0 mi Variable 5.8 mph - 0.00 in   Overcast
11:06 AM 33.8 °F 25.8 °F 26.6 °F 75% 29.71 in 1.8 mi NNW 10.4 mph 19.6 mph 0.00 in Snow Light Snow
11:14 AM 30.2 °F 22.6 °F 26.6 °F 86% 29.71 in 1.0 mi NW 8.1 mph 19.6 mph 0.00 in Snow Light Snow
11:17 AM 32.0 °F 25.6 °F 26.6 °F 80% 29.71 in 2.0 mi Variable 6.9 mph - 0.00 in Snow Light Snow
11:22 AM 32.0 °F 24.8 °F 26.6 °F 80% 29.71 in 8.0 mi WNW 8.1 mph - 0.00 in Snow Light Snow
11:53 AM 36.0 °F 28.0 °F 23.0 °F 59% 29.76 in 10.0 mi NW 11.5 mph 21.9 mph 0.00 in   Mostly Cloudy
12:53 PM 36.0 °F 29.0 °F 15.1 °F 43% 29.79 in 10.0 mi NW 9.2 mph 25.3 mph 0.00 in   Scattered Clouds
1:53 PM 35.1 °F 27.9 °F 12.9 °F 40% 29.81 in 10.0 mi NNW 9.2 mph 20.7 mph N/A   Mostly Cloudy
2:53 PM 35.1 °F 30.1 °F 12.0 °F 39% 29.83 in 10.0 mi Variable 5.8 mph - N/A   Overcast
3:53 PM 34.0 °F 28.0 °F 10.9 °F 38% 29.85 in 10.0 mi Variable 6.9 mph 23.0 mph N/A   Overcast
4:53 PM 33.1 °F 27.7 °F 12.9 °F 43% 29.86 in 10.0 mi Variable 5.8 mph 19.6 mph N/A   Mostly Cloudy
5:53 PM 32.0 °F 24.8 °F 17.1 °F 54% 29.88 in 9.0 mi NNW 8.1 mph - 0.00 in Snow Light Snow
6:53 PM 28.9 °F 21.9 °F 14.0 °F 54% 29.92 in 9.0 mi Variable 6.9 mph - 0.00 in   Overcast
7:53 PM 28.0 °F 21.7 °F 12.0 °F 51% 29.96 in 10.0 mi NW 5.8 mph - 0.00 in   Scattered Clouds
8:53 PM 27.0 °F 23.0 °F 10.9 °F 51% 29.99 in 10.0 mi Variable 3.5 mph - N/A   Clear
9:53 PM 26.1 °F 18.4 °F 10.0 °F 51% 30.01 in 10.0 mi Variable 6.9 mph - N/A   Partly Cloudy
10:53 PM 25.0 °F 20.7 °F 10.0 °F 53% 30.03 in 10.0 mi Variable 3.5 mph - N/A   Mostly Cloudy
11:53 PM 25.0 °F 20.7 °F 9.0 °F 51% 30.03 in 10.0 mi Variable 3.5 mph - N/A   Overcast